Flag for Western Sahara Weather past 2 weeks in El Aaiún, Western Sahara

Now
57 °F

Passing clouds.


Feels Like: 54 °F
Forecast: N/A
Wind: 13 mph from Northeast

Location: Laayoune/Hassan Isl

Current Time: Jan 27, 2015 at 11:39:19 PM

Latest Report: Jan 27, 2015 at 11:00 PM


Visibility: 5 mi

Pressure: 30.33 "Hg

Humidity: 82%

Dew point: 52 °F

Location of El AaiúnLocation

Historic Weather in El Aaiún — Graph

°F

El Aaiún temperature yesterday

Maximum temperature yesterday: 75 °F (at 3:00 PM)
Minimum temperature yesterday: 50 °F (at 6:00 AM)
Average temperature yesterday: 61 °F

Past Weeks' High & Low Weather Summary

 TemperatureHumidityPressure
High75 °F (Jan 15, 4:00 PM)100% (Jan 14, 8:00 AM)30.39 "Hg (Jan 14, 8:00 AM)
Low50 °F (Jan 26, 6:00 AM)25% (Jan 15, 3:00 PM)30.04 "Hg (Jan 20, 6:00 AM)
Average61 °F68%30.19 "Hg
* Reported Jan 12 9:00 PM — Jan 27 9:00 PM, El Aaiún, Weather by CustomWeather, © 2014

Note: Actual official high and low records may vary slightly from our data, if they occured in-between our weather recording intervals... More about our weather records

Advertising

El Aaiún weather history for previous 24 hours

 ConditionsComfort  
Time TempWeatherWind HumidityBarometerVisibility
9:00 PM
Jan 27
59 °FPassing clouds.12 mph77%30.33 "Hg5 mi
8:00 PM61 °FClear.13 mph72%30.30 "Hg10 mi
7:00 PM63 °FSunny.13 mph64%30.30 "Hg10 mi
6:00 PM66 °FSunny.16 mph56%30.27 "Hg10 mi
5:00 PM70 °FSunny.12 mph43%30.27 "Hg10 mi
4:00 PM70 °FSunny.8 mph43%30.27 "Hg10 mi
3:00 PM68 °FPassing clouds.7 mph46%30.30 "HgN/A
2:00 PM66 °FPassing clouds.9 mph52%30.33 "HgN/A
1:00 PM66 °FPassing clouds.8 mph56%30.36 "HgN/A
12:00 PM63 °FPassing clouds.7 mph68%30.39 "HgN/A
11:00 AM61 °FPassing clouds.6 mph77%30.39 "HgN/A
10:00 AM57 °FPassing clouds.6 mph82%30.39 "HgN/A
9:00 AM55 °FPassing clouds.6 mph88%30.36 "HgN/A
7:00 AM54 °FPassing clouds.6 mph88%30.33 "Hg4 mi
6:00 AM54 °FPassing clouds.5 mph88%30.30 "Hg4 mi
5:00 AM54 °FPassing clouds.7 mph94%30.30 "Hg4 mi
3:00 AM55 °FPassing clouds.5 mph94%30.33 "Hg4 mi
2:00 AM55 °FPassing clouds.5 mph94%30.33 "Hg4 mi
1:00 AM55 °FPassing clouds.5 mph94%30.33 "Hg4 mi
12:00 AM57 °FPassing clouds.8 mph88%30.33 "Hg5 mi
Weather by CustomWeather, © 2014

See weather overviewHow to use our weather pages